1390176032364,63.4552
1390176092364,63.6331
1390176152364,63.6007
1390176212365,63.7162
1390176272365,63.7382
1390176332365,63.5945
1390176392365,63.6212
1390176452364,63.7051
1390176512364,63.7327
1390176572365,63.6172
1390176632365,63.5571
1390176692365,63.7785
1390176752365,63.5797
1390176812365,63.7504
1390176872365,63.5252
1390176932365,63.6771
1390176992365,63.7957
1390177052365,63.6727
1390177112364,63.6330
1390177172364,63.5612
1390177232364,63.7063
1390177292364,63.6194
1390177352364,63.5771
1390177412364,63.5429
1390177472364,63.5430
1390177532364,63.4669
1390177592365,63.5626
1390177652365,63.5020
1390177712365,63.6244
1390177772364,63.4996
1390177832364,63.4920
1390177892365,63.4094
1390177952365,63.5948
1390178012365,63.4850
1390178072365,63.3342
1390178132365,63.7809
1390178192365,63.6083
1390178252365,63.4619
1390178312365,63.7724
1390178372365,63.5608
1390178432365,63.3835
1390178492364,63.5585
1390178552364,63.5723
1390178612364,63.5717
1390178672364,63.6078
1390178732364,63.3662
1390178792364,63.5143
1390178852364,63.5252
1390178912365,63.5638
1390178972365,63.6532
1390179032365,63.4785
1390179092365,63.4982
1390179152364,63.4981
1390179212364,63.4356
1390179272365,63.4902
1390179332365,63.4541
1390179392365,63.4204
1390179452365,63.6207
1390179512365,63.5724
1390179572365,63.5110
1390179632375,63.6283
1390179692375,63.4598
1390179752375,63.6795
1390179812375,63.4861
1390179872375,63.6214
1390179932375,63.5342
1390179992375,63.6123
1390180052375,63.5228
1390180112375,63.6569
1390180172375,63.7152
1390180232375,63.5599
1390180292375,63.6539
1390180352375,63.5455
1390180412375,63.5882
1390180472375,63.7355
1390180532375,63.5459
1390180592375,63.6487
1390180652375,63.5399
1390180712375,63.7301
1390180772375,63.5388
1390180832375,63.5960
1390180892375,63.5207
1390180952375,63.6728
1390181012375,63.6012
1390181072375,63.5103
1390181132375,63.4867
1390181192375,63.6918
1390181252375,63.7490
1390181312375,63.3490
1390181372375,63.3198
1390181432375,63.6184
1390181492375,63.4850
1390181552375,63.5195
1390181612375,63.4520
1390181672375,63.4832
1390181732375,63.5680
1390181792375,63.5344
1390181852375,63.4645
1390181912375,63.5779
1390181972375,63.4945
1390182032375,63.2685
1390182092375,63.5798
1390182152375,63.5579
1390182212375,63.4716
1390182272375,63.4349
1390182332375,63.5544
1390182392375,63.4872
1390182452375,63.5540
1390182512375,63.7372
1390182572375,63.5030
1390182632375,63.4651
1390182692375,63.5311
1390182752375,63.5692
1390182812375,63.4907
1390182872375,63.4695
1390182932375,63.4484
1390182992375,63.7109
1390183052375,63.5434
1390183112375,63.6652
1390183172375,63.5468
1390183232385,63.5908
1390183292385,63.5804
1390183352385,63.7507
1390183412385,63.4948
1390183472385,63.5536
1390183532385,63.7108
1390183592385,63.7723
1390183652385,63.6171
1390183712385,63.5202
1390183772385,63.6658
1390183832385,63.6967
1390183892385,63.4666
1390183952385,63.8432
1390184012385,63.6015
1390184072385,63.8688
1390184132385,63.9178
1390184192385,63.7616
1390184252385,63.8352
1390184312385,63.7607
1390184372385,63.7916
1390184432385,63.5966
1390184492385,63.8966
1390184552385,63.6034
1390184612385,63.6536
1390184672385,63.7536
1390184732385,63.6136
1390184792385,63.8393
1390184852385,63.6883
1390184912385,63.5449
1390184972385,63.9123
1390185032385,63.7786
1390185092385,63.6856
1390185152385,63.8101
1390185212385,63.6867
1390185272385,63.5508
1390185332385,63.7111
1390185392385,63.6841
1390185452385,63.3408
1390185512385,63.5003
1390185572385,63.7160
1390185632385,63.5001
1390185692385,63.6225
1390185752385,63.6046
1390185812385,63.7051
1390185872385,63.5285
1390185932385,63.5969
1390185992385,63.2978
1390186052385,63.5948
1390186112385,63.3860
1390186172385,63.5880
1390186232385,63.2934
1390186292385,63.4442
1390186352385,63.4236
1390186412385,63.4624
1390186472385,63.2775
1390186532385,63.5411
1390186592385,63.3176
1390186652385,63.5225
1390186712385,63.5392
1390186772385,63.5388
1390186832395,63.6544
1390186892395,63.4532
1390186952395,63.4633
1390187012395,63.6064
1390187072395,63.6230
1390187132395,63.4096
1390187192395,63.4285
1390187252395,63.3995
1390187312395,63.5602
1390187372395,63.4965
1390187432395,63.6294
1390187492395,63.3559
1390187552395,63.4388
1390187612395,63.3989
1390187672395,63.6390
1390187732395,63.5731
1390187792395,63.6005
1390187852395,63.6006
1390187912395,63.4749
1390187972395,63.3768
1390188032395,63.5294
1390188092395,63.5184
1390188152395,63.4607
1390188212395,63.7041
1390188272395,63.7320
1390188332395,63.6612
1390188392395,63.6055
1390188452395,63.6936
1390188512395,63.6942
1390188572395,63.8585
1390188632395,63.9676
1390188692395,63.8727
1390188752395,63.8218
1390188812395,64.0813
1390188872395,64.0118
1390188932395,64.2343
1390188992395,64.1357
1390189052395,64.1093
1390189112395,63.8583
1390189172395,64.1670
1390189232395,63.9923
1390189292395,63.9864
1390189352395,64.0706
1390189412395,64.0475
1390189472395,63.9382
1390189532395,63.9838
1390189592395,63.8495
1390189652395,63.8485
1390189712395,64.0119
1390189772395,63.9415
1390189832395,63.5989
1390189892395,63.8371
1390189952395,63.7006
1390190012395,63.8587
1390190072395,63.7013
1390190132395,63.8098
1390190192395,63.7635
1390190252395,63.7237
1390190312395,63.6145
1390190372395,63.6533
1390190432406,63.8979
1390190492406,63.8597
1390190552406,63.7180
1390190612406,63.7712
1390190672406,63.8057
1390190732406,63.8862
1390190792406,63.7187
1390190852406,63.6614
1390190912406,63.9644
1390190972406,63.9368
1390191032406,63.8534
1390191092406,63.7189
1390191152406,63.8882
1390191212406,63.9284
1390191272406,63.7967
1390191332406,63.6300
1390191392406,63.9696
1390191452406,63.8318
1390191512406,63.5011
1390191572406,63.6971
1390191632406,64.0173
1390191692406,63.6051
1390191752406,63.6003
1390191812406,63.5496
1390191872406,63.7860
1390191932406,63.6518
1390191992406,63.7222
1390192052406,63.6856
1390192112406,63.8241
1390192172406,63.6243
1390192232406,63.7935
1390192292406,63.7031
1390192352406,63.5493
1390192412406,63.4728
1390192472406,63.7388
1390192532406,63.5210
1390192592405,63.6011
1390192652406,63.6770
1390192712406,63.7086
1390192772406,63.5935
1390192832406,63.6351
1390192892406,63.6276
1390192952406,63.3189
1390193012406,63.5584
1390193072406,63.7071
1390193132406,63.6530
1390193192406,63.7000
1390193252406,63.4368
1390193312406,63.4716
1390193372406,63.5831
1390193432406,63.6177
1390193492406,63.5643
1390193552406,63.5601
1390193612406,63.7608
1390193672406,63.5494
1390193732406,63.5889
1390193792406,63.4751
1390193852406,63.6059
1390193912406,63.6168
1390193972406,63.6741
1390194032416,63.3676
1390194092416,63.4033
1390194152416,63.5280
1390194212416,63.5426
1390194272416,63.3623
1390194332416,63.2965
1390194392416,63.4210
1390194452416,63.4116
1390194512416,63.3624
1390194572416,63.5442
1390194632416,63.5185
1390194692416,63.6294
1390194752416,63.4918
1390194812416,63.5218
1390194872416,63.1827
1390194932416,63.4977
1390194992416,63.4391
1390195052416,63.4231
1390195112416,63.4015
1390195172416,63.4048
1390195232416,63.4631
1390195292416,63.2175
1390195352416,63.1776
1390195412416,63.5011
1390195472416,63.2656
1390195532416,63.2838
1390195592416,63.3283
1390195652416,63.3217
1390195712416,63.4595
1390195772416,63.2853
1390195832416,63.1976
1390195892416,63.2013
1390195952416,63.4439
1390196012416,63.2498
1390196072416,63.3288
1390196132416,63.3099
1390196192416,63.2996
1390196252416,63.2663
1390196312416,63.2450
1390196372416,63.1921
1390196432416,63.2975
1390196492416,63.3475
1390196552416,63.3389
1390196612416,63.3850
1390196672416,63.3879
1390196732416,63.2155
1390196792416,63.2599
1390196852416,63.2710
1390196912416,63.3804
1390196972416,63.3416
1390197032416,63.3447
1390197092416,63.5071
1390197152416,63.3216
1390197212416,63.4642
1390197272416,63.4022
1390197332416,63.2898
1390197392416,63.3475
1390197452416,63.3295
1390197512416,63.4727
1390197572416,63.3356
1390197632427,63.3297
1390197692427,63.6777
1390197752427,63.5997
1390197812427,63.5170
1390197872427,63.5241
1390197932427,63.4617
1390197992427,63.4183
1390198052427,63.6429
1390198112427,63.5957
1390198172427,63.5608
1390198232427,63.5968
1390198292427,63.7149
1390198352427,63.7225
1390198412427,63.7720
1390198472427,63.6943
1390198532427,63.8140
1390198592427,63.8803
1390198652427,63.6213
1390198712427,63.6429
1390198772427,63.5710
1390198832427,63.6208
1390198892427,63.7688
1390198952427,63.6149
1390199012427,63.6407
1390199072427,63.6628
1390199132427,63.8470
1390199192427,64.1100
1390199252427,63.9473
1390199312427,64.0811
1390199372427,63.7286
1390199432427,63.6972
1390199492427,63.8350
1390199552427,63.8760
1390199612427,63.7567
1390199672427,63.6160
1390199732427,63.6930
1390199792427,63.7243
1390199852427,63.5932
1390199912427,63.7465
1390199972427,63.7704
1390200032427,63.8026
1390200092427,63.8477
1390200152427,63.7934
1390200212427,64.0014
1390200272427,63.9588
1390200332427,63.6082
1390200392427,63.8340
1390200452427,63.7527
1390200512427,63.6314
1390200572427,63.8317
1390200632427,63.7771
1390200692427,63.7683
1390200752427,63.6680
1390200812427,63.5849
1390200872427,63.8511
1390200932427,63.6662
1390200992427,63.7287
1390201052427,63.6302
1390201112427,63.8096
1390201172427,63.7926
1390201232438,63.5589
1390201292438,63.5527
1390201352438,63.7711
1390201412438,63.8058
1390201472438,63.7464
1390201532438,63.9874
1390201592438,63.7746
1390201652438,63.8225
1390201712438,63.6431
1390201772438,63.7745
1390201832438,63.8667
1390201892438,63.8812
1390201952438,63.9500
1390202012438,63.9749
1390202072438,63.8267
1390202132438,64.0157
1390202192438,63.9579
1390202252438,64.1655
1390202312438,64.0443
1390202372438,63.8218
1390202432438,64.0406
1390202492438,64.0117
1390202552438,64.1024
1390202612438,63.9210
1390202672438,63.9795
1390202732438,64.0562
1390202792438,64.0006
1390202852438,64.0844
1390202912438,64.1358
1390202972438,64.0845
1390203032438,64.2736
1390203092438,64.0582
1390203152438,64.0909
1390203212438,64.3658
1390203272438,64.3561
1390203332438,64.3270
1390203392438,64.2766
1390203452438,64.5872
1390203512438,64.4020
1390203572438,64.4193
1390203632438,64.3034
1390203692438,64.4372
1390203752438,64.4439
1390203812438,64.3914
1390203872438,64.4733
1390203932438,64.4734
1390203992438,64.3463
1390204052438,64.3332
1390204112438,64.3353
1390204172438,64.2727
1390204232438,64.1983
1390204292438,64.4092
1390204352438,64.2574
1390204412438,64.2436
1390204472438,64.1631
1390204532438,64.2220
1390204592438,64.3251
1390204652438,64.2818
1390204712438,64.1350
1390204772438,64.4690
1390204832449,64.3909
1390204892449,64.2326
1390204952449,64.1549
1390205012449,64.1943
1390205072449,64.3859
1390205132449,64.1741
1390205192449,64.1335
1390205252449,64.2364
1390205312449,64.3797
1390205372449,64.1171
1390205432449,64.1990
1390205492449,64.2714
1390205552449,64.2118
1390205612449,64.4036
1390205672449,64.3842
1390205732449,64.2230
1390205792449,64.2541
1390205852449,64.1157
1390205912449,64.0486
1390205972449,64.0844
1390206032449,64.0776
1390206092449,64.1511
1390206152449,63.9844
1390206212449,64.2450
1390206272449,64.0871
1390206332449,64.1436
1390206392449,64.0817
1390206452449,64.1324
1390206512449,64.2144
1390206572449,64.1617
1390206632449,64.4560
1390206692449,64.3590
1390206752449,64.2682
1390206812449,64.1654
1390206872449,64.2024
1390206932449,64.2680
1390206992449,64.3282
1390207052449,64.2402
1390207112449,64.2726
1390207172449,64.2514
1390207232449,64.3433
1390207292449,64.2845
1390207352449,64.4610
1390207412449,64.2533
1390207472449,64.2868
1390207532449,64.2512
1390207592449,64.3377
1390207652449,64.2542
1390207712449,64.0556
1390207772449,64.2066
1390207832449,64.3598
1390207892449,63.9459
1390207952449,64.1969
1390208012449,64.1756
1390208072449,64.0532
1390208132449,64.2128
1390208192449,64.2880
1390208252449,64.4155
1390208312449,64.3930
1390208372449,64.1019
1390208432460,63.9876
1390208492460,64.1468
1390208552460,64.0325
1390208612460,64.2143
1390208672460,64.0750
1390208732460,64.0932
1390208792460,64.0327
1390208852460,64.2226
1390208912460,64.1794
1390208972460,64.0924
1390209032460,64.2313
1390209092460,63.9932
1390209152460,64.1480
1390209212460,63.9423
1390209272460,64.2383
1390209332460,64.2062
1390209392460,63.9205
1390209452460,63.9853
1390209512460,63.9381
1390209572460,64.2214
1390209632460,63.9727
1390209692460,64.0366
1390209752460,63.8961
1390209812460,63.9518
1390209872460,64.1246
1390209932460,63.9909
1390209992460,63.9628
1390210052460,63.8003
1390210112460,63.9117
1390210172460,64.2317
1390210232460,63.9632
1390210292460,63.9065
1390210352460,63.8829
1390210412460,63.8171
1390210472460,64.0807
1390210532460,63.9340
1390210592460,64.0980
1390210652460,63.8450
1390210712460,64.0176
1390210772460,63.9542
1390210832460,64.2736
1390210892460,63.9566
1390210952460,63.9855
1390211012460,63.8679
1390211072460,64.0051
1390211132460,64.2150
1390211192460,63.9239
1390211252460,64.0539
1390211312460,64.0407
1390211372460,64.1340
1390211432460,64.1666
1390211492460,63.9529
1390211552460,64.1926
1390211612460,63.8015
1390211672460,63.9476
1390211732460,64.0512
1390211792460,63.8021
1390211852460,64.0010
1390211912460,64.1800
1390211972460,64.0445
1390212032471,63.8594
1390212092471,64.1405
1390212152471,63.9666
1390212212471,64.0683
1390212272471,64.0176
1390212332471,63.9568
1390212392471,64.0913
1390212452471,64.0566
1390212512471,64.0602
1390212572471,63.9978
1390212632471,64.0220
1390212692471,63.9135
1390212752471,63.8384
1390212812471,63.8179
1390212872471,64.0407
1390212932471,63.9139
1390212992471,63.9037
1390213052471,63.9569
1390213112471,63.9012
1390213172471,64.0091
1390213232471,63.9357
1390213292471,64.0984
1390213352471,64.0342
1390213412471,64.0909
1390213472471,64.0482
1390213532471,64.0817
1390213592471,63.9834
1390213652471,63.9855
1390213712471,64.1576
1390213772471,64.0223
1390213832471,64.1289
1390213892471,63.9986
1390213952471,64.0234
1390214012471,64.1442
1390214072471,63.8459
1390214132471,63.9612
1390214192471,64.1854
1390214252471,64.0736
1390214312471,64.3228
1390214372471,64.0745
1390214432471,64.0176
1390214492471,64.0429
1390214552471,64.0593
1390214612471,64.2040
1390214672471,64.0848
1390214732471,64.1075
1390214792471,63.9464
1390214852471,63.8920
1390214912471,63.9445
1390214972471,64.1141
1390215032471,64.1524
1390215092471,64.0501
1390215152471,64.0483
1390215212471,64.0135
1390215272471,64.0040
1390215332471,63.8543
1390215392471,63.9885
1390215452471,63.7860
1390215512471,63.9146
1390215572471,64.0611
1390215632482,63.7579
1390215692482,64.0234
1390215752482,64.1928
1390215812482,63.8799
1390215872482,63.9296
1390215932482,63.9126
1390215992482,64.2099
1390216052482,64.1329
1390216112482,64.1392
1390216172482,63.9693
1390216232482,64.0527
1390216292482,63.9829
1390216352482,64.1025
1390216412482,64.0421
1390216472482,63.9587
1390216532482,64.1303
1390216592482,64.0794
1390216652482,64.0228
1390216712482,64.0936
1390216772482,64.1177
1390216832482,64.0784
1390216892482,63.9206
1390216952482,63.8749
1390217012482,63.9194
1390217072482,64.1537
1390217132482,64.0273
1390217192482,64.0051
1390217252482,63.9402
1390217312482,64.0795
1390217372482,64.1404
1390217432482,64.0144
1390217492482,64.0860
1390217552482,64.0246
1390217612482,64.1232
1390217672482,64.5614
1390217732482,64.0197
1390217792482,64.2141
1390217852482,64.0366
1390217912482,63.9699
1390217972482,63.9130
1390218032482,63.9850
1390218092482,63.9818
1390218152482,64.1555
1390218212482,63.9994
1390218272482,63.9310
1390218332482,63.9976
1390218392482,63.7600
1390218452482,63.9351
1390218512482,63.9493
1390218572482,63.9203
1390218632482,63.9264
1390218692482,63.9879
1390218752482,63.8996
1390218812482,63.9319
1390218872482,63.9137
1390218932482,63.9143
1390218992482,63.7715
1390219052482,64.0003
1390219112482,63.8109
1390219172482,63.9458
1390219232494,63.8774
1390219292494,63.6003
1390219352494,63.7509
1390219412494,63.7652
1390219472494,63.7710
1390219532494,63.9534
1390219592494,63.8881
1390219652494,63.8431
1390219712494,63.9118
1390219772494,63.9071
1390219832494,63.6609
1390219892494,63.7948
1390219952494,63.8511
1390220012494,63.9253
1390220072494,63.8430
1390220132494,63.7737
1390220192494,63.8112
1390220252494,63.7386
1390220312494,63.7370
1390220372494,63.7106
1390220432494,64.0101
1390220492494,63.7765
1390220552494,63.9910
1390220612494,64.0140
1390220672494,63.6552
1390220732494,63.6163
1390220792494,63.7382
1390220852494,63.7598
1390220912494,63.7183
1390220972494,63.7667
1390221032494,63.8263
1390221092494,63.8055
1390221152494,63.9509
1390221212494,63.6764
1390221272494,63.8593
1390221332494,63.7413
1390221392494,63.9759
1390221452494,63.8540
1390221512494,63.6959
1390221572494,63.6938
1390221632494,63.7461
1390221692494,63.7279
1390221752494,63.8037
1390221812494,63.7381
1390221872494,63.5680
1390221932494,63.9139
1390221992494,63.8001
1390222052494,63.7017
1390222112494,63.9695
1390222172494,63.8524
1390222232494,63.8835
1390222292494,63.8619
1390222352494,63.7264
1390222412494,63.5899
1390222472494,63.8635
1390222532494,63.7404
1390222592494,63.8037
1390222652494,63.5514
1390222712494,63.8820
1390222772494,63.8178
1390222832505,63.6465
1390222892505,63.6247
1390222952505,63.8644
1390223012505,63.6524
1390223072505,63.6815
1390223132505,63.6399
1390223192505,63.6928
1390223252505,63.7381
1390223312505,63.6191
1390223372505,63.7245
1390223432505,63.8254
1390223492505,63.4925
1390224032505,63.4196
1390224092505,63.5956
1390224152505,63.6322
1390224212505,63.5341
1390224272505,63.5186
1390224332505,63.7189
1390224392505,63.8013
1390224452505,63.7173
1390224512505,63.6256
1390224572505,63.7416
1390224632505,63.5650
1390224692505,63.6390
1390224752505,63.5116
1390224812505,63.4525
1390224872505,63.6681
1390224932505,63.7216
1390224992505,63.6615
1390225052505,63.6374
1390225112505,63.5812
1390225172505,63.4546
1390225232505,63.7051
1390225292505,63.7977
1390225352505,63.6391
1390225412505,63.7237
1390225472505,63.7825
1390225532505,63.5431
1390225592505,63.6260
1390225652505,63.5242
1390225712505,63.5663
1390225772505,63.6978
1390225832505,63.6568
1390225892505,63.8949
1390225952505,63.7244
1390226012505,63.7479
1390226072505,63.7413
1390226132505,63.7874
1390226192505,63.6252
1390226252505,63.6781
1390226312505,63.7713
1390226372505,63.6506
1390226432516,63.4581
1390226492516,63.6794
1390226552516,63.7800
1390226612516,63.6257
1390226672516,63.6131
1390226732516,63.6069
1390226792516,63.6855
1390226852516,63.5447
1390226912516,63.7590
1390226972516,63.7519
1390227032516,63.7049
1390227092516,63.7415
1390227152516,63.6318
1390227212516,63.8897
1390227272516,63.6386
1390227332516,63.7237
1390227392516,63.7270
1390227452516,63.7859
1390227512516,63.9756
1390227572516,63.6008
1390227632516,63.6603
1390227692516,63.8395
1390227752516,63.6460
1390227812516,63.5315
1390227872516,63.7304
1390227932516,63.8017
1390227992516,63.8322
1390228052516,63.6484
1390228112516,63.9043
1390228172516,63.8238
1390228232516,63.7035
1390228292516,63.7940
1390228352516,63.8767
1390228412516,63.6473
1390228472516,63.8448
1390228532516,63.8581
1390228592516,63.7535
1390228652516,64.0019
1390228712516,63.8174
1390228772516,63.9017
1390228832516,63.8166
1390228892516,63.8015
1390228952516,63.8751
1390229012516,64.1193
1390229072516,63.6824
1390229132516,64.0451
1390229192516,63.8628
1390229252516,64.0926
1390229312516,63.8635
1390229372516,63.7213
1390229432516,63.9883
1390229492516,63.9260
1390229552516,63.8519
1390229612516,63.7401
1390229672516,63.8607
1390229732516,63.9619
1390229792516,63.9279
1390229852516,63.9249
1390229912516,63.8491
1390229972516,63.8135
1390230032527,63.8685
1390230092527,63.9552
1390230152527,64.0077
1390230212527,63.8807
1390230272527,63.8696
1390230332527,63.8231
1390230392527,64.0960
1390230452527,63.8518
1390230512527,63.9196
1390230572527,63.8630
1390230632527,64.0914
1390230692527,63.8316
1390230752527,64.0213
1390230812527,63.8372
1390230872527,63.9863
1390230932527,63.7809
1390230992527,63.9697
1390231052527,63.8582
1390231112527,63.8187
1390231172527,63.9407
1390231232527,64.0181
1390231292527,63.8820
1390231352527,63.8711
1390231412527,63.9281
1390231472527,64.1324
1390231532527,63.9165
1390231592527,63.9787
1390231652527,63.9702
1390231712527,63.9488
1390231772527,63.8977
1390231832527,63.9563
1390231892527,63.7937
1390231952527,63.9029
1390232012527,63.9651
1390232072527,63.8602
1390232132527,64.0513
1390232192527,63.9279
1390232252527,64.1092
1390232312527,63.8692
1390232372527,63.9188
1390232432527,64.0385
1390232492527,63.9731
1390232552527,63.8448
1390232612527,63.9104
1390232672527,63.8711
1390232732527,63.7243
1390232792527,63.9022
1390232852527,63.9083
1390232912527,64.0316
1390232972527,63.8481
1390233032527,64.1329
1390233092527,64.0702
1390233152527,63.7015
1390233212527,64.0659
1390233272527,63.9934
1390233332527,63.8654
1390233392527,63.9067
1390233452527,64.0144
1390233512527,64.0134
1390233572527,64.0358
1390233632538,63.9496
1390233692538,64.0061
1390233752538,64.0722
1390233812538,64.0354
1390233872538,63.9454
1390233932538,64.2083
1390233992538,63.9614
1390234052538,64.1065
1390234112538,63.9812
1390234172538,64.1556
1390234232538,64.1506
1390234292538,64.1304
1390234352538,64.1874
1390234412538,63.8854
1390234472538,63.9344
1390234532538,63.8078
1390234592538,63.9042
1390234652538,63.9451
1390234712538,63.9526
1390234772538,63.8216
1390234832538,63.9415
1390234892538,63.8998
1390234952538,63.7493
1390235012538,63.9451
1390235072538,63.8640
1390235132538,63.8251
1390235192538,63.8175
1390235252538,63.8160
1390235312538,63.8479
1390235372538,63.9451
1390235432538,63.8600
1390235492538,64.0085
1390235552538,63.8729
1390235612538,63.8305
1390235672538,63.6877
1390235732538,63.6786
1390235792538,63.9515
1390235852538,63.7168
1390235912538,63.8301
1390235972538,63.6891
1390236032538,63.7628
1390236092538,63.6932
1390236152538,63.7116
1390236212538,64.0000
1390236272538,63.8534
1390236332538,64.0206
1390236392538,63.8145
1390236452538,63.7342
1390236512538,63.7849
1390236572538,63.7125
1390236632538,63.7644
1390236692538,63.7963
1390236752538,63.8396
1390236812538,63.8349
1390236872538,63.8959
1390236932538,63.9377
1390236992538,63.8370
1390237052538,63.8574
1390237112538,63.7836
1390237172538,63.8108
1390237232549,63.7950
1390237292549,63.6761
1390237352549,63.7840
1390237412549,63.5922
1390237472549,63.6470
1390237532549,63.7397
1390237592549,63.7556
1390237652549,63.6531
1390237712549,63.7353
1390237772549,63.7833
1390237832549,63.6708
1390237892549,63.8825
1390237952549,63.7268
1390238012549,63.7852
1390238072549,63.7453
1390238132549,63.7572
1390238192549,63.7769
1390238252549,63.8743
1390238312549,63.5657
1390238372549,63.8865
1390238432549,63.8841
1390238492549,63.7035
1390238552549,63.6619
1390238612549,63.8876
1390238672549,63.8347
1390238732549,63.8553
1390238792549,63.6848
1390238852549,63.7018
1390238912549,63.7785
1390238972549,63.7506
1390239032549,63.8070
1390239092549,63.8470
1390239152549,63.7769
1390239212549,63.8368
1390239272549,63.6925
1390239332549,63.8225
1390239392549,63.8236
1390239452549,63.8391
1390239512549,63.8345
1390239572549,63.5728
1390239632549,63.6925
1390239692549,63.7346
1390239752549,63.6806
1390239812549,63.7500
1390239872549,63.6788
1390239932549,63.4851
1390239992549,63.7435
1390240052549,63.6995
1390240112549,63.7471
1390240172549,63.5094
1390240232549,63.5126
1390240292549,63.6457
1390240352549,63.6203
1390240412549,63.5102
1390240472549,63.3287
1390240532549,63.4837
1390240592549,63.6449
1390240652549,63.6189
1390240712549,63.5639
1390240772549,63.5688
1390240832560,63.4981
1390240892560,63.3832
1390240952560,63.5305
1390241012560,63.6549
1390241072560,63.4176
1390241132560,63.6156
1390241192560,63.6568
1390241252560,63.7400
1390241312560,63.5946
1390241372560,63.7391
1390241432560,63.3778
1390241492560,63.5183
1390241552560,63.7343
1390241612560,63.6535
1390241672560,63.6247
1390241732560,63.6593
1390241792560,63.7635
1390241852560,63.9608